Regional Weather Roundup
Issued by NWS New Orleans/Baton Rouge, LA

Home | Current Version | Previous Version | Text Only | Print | Product List | Glossary On
Versions: 1 2 3 4 5 6 7 8 9 10 11 12 13 14 15 16 17 18 19 20 21 22 23 24 25 26 27 28 29 30 31 32 33 34 35 36 37 38 39 40 41 42 43 44 45 46 47 48 49 50
506
ASUS44 KLIX 272211
RWRLIX
NEW ORLEANS REGIONAL WEATHER ROUNDUP
NATIONAL WEATHER SERVICE NEW ORLEANS LA
500 PM CDT SAT AUG 27 2016

NOTE: "FAIR" INDICATES FEW OR NO CLOUDS BELOW 12,000 FEET WITH NO
      SIGNIFICANT WEATHER AND/OR OBSTRUCTIONS TO VISIBILITY.
      SKY/WX - SKY CONDITION AND SIGNIFICANT WEATHER.
      TMP - AIR TEMPERATURE.     DP    - DEWPOINT TEMPERATURE.
      RH  - RELATIVE HUMIDITY.   PRES  - PRESSURE.
      HI  - HEAT INDEX.          WCI   - WIND CHILL INDEX.

*  THESE STATIONS ARE NOT NWS OR FAA STATIONS AND ARE NOT UNDER
   NWS QUALITY CONTROL.

LAZ038-040-048-061>063-065>067-069-272300-
SOUTHEAST LOUISIANA

CITY           SKY/WX    TMP DP  RH WIND       PRES   REMARKS
N.O. AUDUBON     N/A     88  75  65 MISG        N/A  HX  97
N.O. INTL ARPT CLOUDY    89  73  59 E8        29.91S HX  97
N.O. LAKEFRONT PTSUNNY   87  74  64 E17       29.91F HX  95
N.O. DOWNTOWN* MOCLDY    88  76  67 VRB5      29.92S HX  99
RESERVE*         N/A     86  78  77 CALM      29.91F HX  98
SLIDELL        MOSUNNY   87  77  72 NE7       29.91S HX  99
BATON ROUGE    CLOUDY    76  75  97 W7        29.94S
BOOTHVILLE     MOSUNNY   84  77  79 E14       29.92F
BELLE CHASSE   CLOUDY    85  78  80 E10       29.91S HX  96
BOGALUSA*        N/A     91  72  52 E5        29.94S HX  98
GALLIANO*      PTCLDY    87  77  73 SE7       29.91S THUNDER HX  98
NEW ROADS*     CLOUDY    75  74  96 NW6       29.95F
GONZALES*      CLOUDY    81  77  89 CALM      29.93R
HAMMOND*       CLOUDY    86  72  62 CALM      29.92S
HOUMA*         TSTM      81  75  83 E9        29.93R
PORT FOURCHON* PTCLDY    86  75  70 E9        29.91S HX  95

$$

MSZ070-080>082-272300-
SOUTHERN MISSISSIPPI

CITY           SKY/WX    TMP DP  RH WIND       PRES   REMARKS
MCCOMB         CLOUDY    89  69  51 E6        29.95R
GULFPORT       CLOUDY    83  72  69 E13       29.94S
BILOXI         CLOUDY    80  76  89 SE9       29.94F
PASCAGOULA     CLOUDY    81  78  91 NE3       29.95F
STENNIS ARPT*  PTSUNNY   88  70  55 E13G20    29.93S

$$

COASTAL OBSERVATIONS
LAKE AND NEARSHORE STATIONS

STATION/POSITION TIME  TEMP    WIND        PRES    WAVE
                       AIR SEA DIR/SP/G            HT/PER
                 (UTC) (F)     (DEG/KT/KT) (MB)    (FT/S)
PASCAGOULA       2100   83     100/  9/ 15 1014.2
WAVELAND YACHT   2100   85 88  110/ 18/ 21 1013.7
GRAND ISLE       2100   85 87  100/ 10/ 15 1012.8
SOUTHWEST PASS   2100          100/ 11/ 14   N/A
NEW CANAL        2100   87 86   70/ 14/ 17 1012.0
SHELL BEACH      2100   86 87   90/ 17/ 20 1013.0

OFFSHORE STATIONS

STATION/POSITION TIME  TEMP    WIND        PRES    WAVE
                       AIR SEA DIR/SP/G            HT/PER
                 (UTC) (F)     (DEG/KT/KT) (MB)    (FT/S)
64 S DAUPHIN ISL 2100   79 86   80/ 21/ 29 1014.0

$$





USA.gov is the U.S. government's official web portal to all federal, state and local government web resources and services.